Location: Étavigny
(49.1201°N, 2.9800°E)
Time: 22:24:46
(UTC+00:00)

NOAA 16 DEB - Visible Passes

Search period start: 26 February 2024 00:00
Search period end: 07 March 2024 00:00
Orbit: 794 x 839 km, 98.8° (Epoch: 25 February)

Date Brightness Start Highest point End Pass type
(mag) Time Alt. Az. Time Alt. Az. Time Alt. Az.
29 Feb ? 23:05:17 10° N 23:05:17 10° N 23:05:17 10° N visible
01 Mar ? 22:43:05 11° N 22:43:05 11° N 22:43:18 10° N visible
02 Mar ? 22:20:53 11° N 22:20:53 11° N 22:21:11 10° N visible
03 Mar ? 21:58:40 11° NNE 21:58:40 11° NNE 21:58:55 10° N visible
04 Mar ? 23:17:43 12° NNW 23:17:43 12° NNW 23:18:01 10° NNW visible
05 Mar ? 22:55:29 13° N 22:55:29 13° N 22:56:02 10° N visible
06 Mar ? 22:33:14 13° N 22:33:14 13° N 22:33:56 10° N visible
